Regional Weather Roundup
Issued by NWS

Home | Current Version | Previous Version | Text Only | Print | Product List | Glossary Off
Versions: 1 2 3 4 5 6 7 8 9 10 11 12 13 14 15 16 17 18 19 20 21 22 23 24 25 26 27 28 29 30 31 32 33 34 35 36 37 38 39 40 41 42 43 44 45 46 47 48 49 50

000
ASUS43 KMPX 192201
RWRMN
WEATHER ROUNDUP FOR MINNESOTA
NATIONAL WEATHER SERVICE TWIN CITIES/CHANHASSEN MN
500 PM CDT TUE SEP 19 2017


NOTE: "FAIR" INDICATES FEW OR NO CLOUDS BELOW 12,000 FEET WITH NO
SIGNIFICANT WEATHER AND/OR OBSTRUCTIONS TO VISIBILITY. N/A MEANS
CURRENT SKY AND/OR WEATHER CONDITIONS ARE NOT AVAILABLE.

MNZ060>063-068>070-192300-
   Twin Cities Metro

CITY           SKY/WX    TMP DP  RH WIND       PRES   REMARKS
TWIN CITIES    PTSUNNY   78  63  59 SE16      29.74F
ST PAUL        MOSUNNY   77  63  61 SE15      29.75F
CRYSTAL        CLOUDY    79  59  50 SE13G29   29.72F
BLAINE         PTSUNNY   81  63  54 SE17G24   29.74F
LAKEVILLE      MOSUNNY   75  63  64 SE15G23   29.74F
EDEN PRAIRIE   MOSUNNY   78  63  59 SE15      29.71F
SOUTH ST PAUL  CLOUDY    78  60  53 SE13G21   29.75F
LAKE ELMO      FAIR      77  64  65 SE10G18   29.77F
$$
MNZ001>005-007-008-013>017-022>024-027-028-192300-
   Northwest Minnesota

CITY           SKY/WX    TMP DP  RH WIND       PRES   REMARKS
BEMIDJI        CLOUDY    68  61  78 SE15      29.68F
HALLOCK        CLOUDY    73  63  68 SE16      29.54F
ROSEAU         CLOUDY    70  63  78 SE18G26   29.64F
WARROAD        CLOUDY    70  63  78 SE17      29.67F
CROOKSTON      CLOUDY    73  63  68 CALM      29.59R
FOSSTON        CLOUDY    70  59  68 SE16G23   29.63F
DETROIT LAKES  CLOUDY    72  61  68 SE16G24   29.63S
MOORHEAD       CLOUDY    73  63  68 SE14G22   29.54F
PARK RAPIDS    CLOUDY    72  62  71 SE22G28   29.65F
MAHNOMEN       FAIR      71  62  73 SE18G25   29.61S
$$
MNZ006-009>011-018-025>026-192300-
   North Central Minnesota

CITY           SKY/WX    TMP DP  RH WIND       PRES   REMARKS
BAUDETTE       CLOUDY    70  59  68 S17G24    29.70S
FLAG ISLAND    CLOUDY    64  57  77 E10       29.68F
INTL FALLS     CLOUDY    70  59  68 SE13      29.75F
WASKISH        CLOUDY    68  61  77 SE15      29.70F
BIG FORK       CLOUDY    70  61  73 SE5       29.75F
LONGVILLE      CLOUDY    70  61  73 SE12G20   29.72F
GRAND RAPIDS   PTSUNNY   71  61  70 SE10      29.77F
CRANE LAKE     CLOUDY    70  61  73 S3        29.81S
ORR            CLOUDY    68  55  64 SE9G20    29.77S
COOK           CLOUDY    70  59  68 SE10G16   29.80F
WALKER         CLOUDY    68  61  77 SE9       29.69F
$$
MNZ012-019>021-037-192300-
   Northeast Minnesota

CITY           SKY/WX    TMP DP  RH WIND       PRES   REMARKS
DULUTH         CLOUDY    65  57  75 E16       29.83F
ELY            MOSUNNY   68  55  64 SE12      29.84F
HIBBING        CLOUDY    68  60  75 SE12      29.80F
EVELETH        PTSUNNY   70  62  75 SE9G16    29.82F
DULUTH HARBOR  PTSUNNY   63  59  88 NE24      29.83F
TWO HARBORS    MOSUNNY   66  57  72 E16G25    29.84F
SILVER BAY     PTSUNNY   61  55  82 NE10G20   29.86F
$$
MNZ029>031-032-039>041-046>048-054>057-064-192300-
   West Central Minnesota

CITY           SKY/WX    TMP DP  RH WIND       PRES   REMARKS
FERGUS FALLS   CLOUDY    73  64  73 SE21G28   29.56F
WHEATON        CLOUDY    73  64  73 SE23G30   29.53F
MORRIS         CLOUDY    75  66  73 SE22G33   29.55F
ALEXANDRIA     CLOUDY    73  64  73 SE17G30   29.63F
ELBOW LAKE     FAIR      72  65  77 E22G35    29.57F HAZE
WADENA         CLOUDY    72  63  73 SE17      29.64F
GLENWOOD       CLOUDY    73  64  73 SE18G30   29.63F
APPLETON       CLOUDY    77  64  65 SE18G25   29.54F
BENSON         CLOUDY    75  66  73 S14G23    29.59F
ORTONVILLE     CLOUDY    75  66  73 NE20G30   29.52F
MADISON        CLOUDY    79  68  69 SE21G26   29.53F
WILLMAR        FAIR      77  66  69 SE20G28   29.63F
$$
MNZ033>034-036-042>043-049>051-058-059-192300-
   Central Minnesota

CITY           SKY/WX    TMP DP  RH WIND       PRES   REMARKS
ST CLOUD       CLOUDY    76  63  64 SE20G28   29.69F
SAUK CENTRE      N/A     73  64  74 SE14      29.66
PAYNESVILLE    MOSUNNY   75  65  70 SE15G23   29.67F
AITKIN         CLOUDY    72  61  68 SE10G17   29.74F
PINE RIVER     CLOUDY    70  61  73 SE14G21   29.74F
BRAINERD       CLOUDY    72  62  71 SE13G20   29.72F
STAPLES        CLOUDY    72  61  68 SE10G24   29.67F
LONG PRAIRIE   CLOUDY    70  63  78 E14       29.67F
LITTLE FALLS   CLOUDY    73  55  53 SE15G22   29.69F
LITCHFIELD     CLOUDY    79  66  65 SE16G23   29.67F
BUFFALO        SUNNY     78  62  58 SE14G21   29.72F
MAPLE LAKE     CLOUDY    77  65  66 SE10      29.71F
HUTCHINSON     CLOUDY    78  67  70 SE12G21   29.68F
$$
MNZ037-044-045-052-053-192300-
   East Central Minnesota

CITY           SKY/WX    TMP DP  RH WIND       PRES   REMARKS
PRINCETON      CLOUDY    77  64  65 SE10G20   29.73F
MORA           CLOUDY    73  61  64 SE10      29.77F
RUSH CITY      PTSUNNY   74  62  64 SE9       29.77S
MOOSE LAKE     CLOUDY    72  61  68 SE5       29.77F
HINCKLEY       CLOUDY    73  63  68 SE9       29.78F
CLOQUET        MOSUNNY   64  55  72 E13       29.82S
MCGREGOR       CLOUDY    72  61  68 SE10G21   29.77F
$$
MNZ071>073-080-081-089-090-097-098-192300-
   Southwest Minnesota

CITY           SKY/WX    TMP DP  RH WIND       PRES   REMARKS
MONTEVIDEO     CLOUDY    77  66  69 S21G29    29.57F
GRANITE FALLS  CLOUDY    80  68  66 E21G26    29.60F
CANBY          CLOUDY    78  67  70 E22G30    29.54F
MARSHALL       CLOUDY    78  68  71 SE22G36   29.57F
REDWOOD FALLS  CLOUDY    79  65  62 SE23G35   29.61F
OLIVIA         CLOUDY    77  66  69 SE22G31   29.62F
PIPESTONE      CLOUDY    77  66  69 SE23      29.57F
WORTHINGTON    MOSUNNY   78  68  71 SE20G29   29.62F
JACKSON        MOSUNNY   79  66  65 SE17G28   29.66F
TRACY          CLOUDY    77  69  77 SE18G31   29.60F
SLAYTON        CLOUDY    76  63  62 SE17G31   29.62F
$$
MNZ065>067-074>077-082>085-091>093-192300-
   South Central Minnesota

CITY           SKY/WX    TMP DP  RH WIND       PRES   REMARKS
MANKATO        MOSUNNY   78  65  63 SE18      29.71F
NEW ULM        CLOUDY    79  64  61 SE17G26   29.66F
ST JAMES       CLOUDY    81  66  61 SE17G28   29.67F
FAIRMONT       MOSUNNY   79  67  66 SE22G30   29.67F
GLENCOE        CLOUDY    80  69  68 SE10G18   29.69F
FARIBAULT      SUNNY     79  64  61 SE13G22   29.74F
OWATONNA       SUNNY     79  63  57 SE20G25   29.74F
WASECA         SUNNY     77  63  61 SE21      29.74F
ALBERT LEA     SUNNY     81  64  57 SE18G26   29.75F
$$
MNZ078>079-086>088-094>096-192300-
   Southeast Minnesota

CITY           SKY/WX    TMP DP  RH WIND       PRES   REMARKS
ROCHESTER      SUNNY     77  63  61 SE17G28   29.80F
RED WING       PTSUNNY   79  61  53 SE14      29.76F
STANTON        CLOUDY    79  62  55 SE15G24   29.74F
DODGE CENTER   SUNNY     79  61  53 SE17G23   29.78F
WINONA         MOSUNNY   79  61  53 SE10      29.82S
AUSTIN         SUNNY     77  61  57 SE16G23   29.77F
PRESTON        SUNNY     77  61  56 SE13G18   29.82F
$$
ABBREVIATIONS USED IN REMARKS
   TC - TEMPERATURES IN CELSIUS
  WCI - WIND CHILL INDEX
   HX - HEAT INDEX
  VSB - VISIBILITY
$$




USA.gov is the U.S. government's official web portal to all federal, state and local government web resources and services.